Rotterdam, Netherlands

1:36 AM CEST on March 27, 2017 (GMT +0200)
Rotterdam

Weather History for EHRD - May, 2011

Change the Weather History Date:

Wednesday, May 25, 2011

  Actual Average Record
Temperature  
Mean Temperature 60 °F -  
Max Temperature 72 °F 65 °F 80 °F (2012)
Min Temperature 47 °F 50 °F 38 °F (2013)
Degree Days  
Heating Degree Days 6    
Growing Degree Days 10 (Base 50)    
Moisture  
Dew Point 42 °F    
Average Humidity 56    
Maximum Humidity 94    
Minimum Humidity 14    
Precipitation  
Precipitation 0.00 in - - ()
Sea Level Pressure  
Sea Level Pressure 30.24 in    
Wind  
Wind Speed 7 mph ()    
Max Wind Speed 12 mph    
Max Gust Speed -    
Visibility 6.7 miles    
Events      
Averages and records for this station are not official NWS values.
T = Trace of Precipitation, MM = Missing Value Source: Averaged Metar Reports

Daily Weather History Graph

Daily Weather History Graph

Search for Another Location

Airport or City:

Trip Planner

Search our weather history database for the weather conditions in past years. The results will help you decide how hot, cold, wet, or windy it might be!

Date:

Astronomy

May. 25, 2011 Rise Set
Actual Time 5:35 AM CEST 9:43 PM CEST
Civil Twilight 4:51 AM CEST 10:28 PM CEST
Nautical Twilight 3:47 AM CEST 11:32 PM CEST
Astronomical Twilight 2:11 AM CEST 1:06 AM CEST
Moon 2:21 AM CEST (5/25) 2:03 PM CEST (5/25)
Length of Visible Light 17h 36m
Length of Day
16h 07m
Last Quarter, 44% of the Moon is Illuminated
May 25
Last Quarter
Jun 1
New
Jun 9
First Quarter
Jun 15
Full
Jun 23
Last Quarter

Hourly Weather History & Observations

Time (CEST) Temp. Dew Point Humidity Pressure Visibility Wind Dir Wind Speed Gust Speed Precip Events Conditions
12:25 AM 53.6 °F 48.2 °F 82% 30.33 in 6.2 mi WSW 9.2 mph - N/A   Unknown
12:55 AM 53.6 °F 50.0 °F 88% 30.33 in 6.2 mi WSW 10.4 mph - N/A   Unknown
1:25 AM 53.6 °F 50.0 °F 88% 30.33 in 6.2 mi WSW 10.4 mph - N/A   Unknown
1:55 AM 53.6 °F 50.0 °F 88% 30.33 in 6.2 mi WSW 9.2 mph - N/A   Unknown
2:00 AM 54 °F 50 °F 82% 30.36 in 7 mi WSW 8.9 mph - -   Scattered Clouds
2:25 AM 51.8 °F 48.2 °F 88% 30.36 in 6.2 mi West 4.6 mph - N/A   Unknown
2:55 AM 50.0 °F 48.2 °F 94% 30.33 in 6.2 mi WSW 5.8 mph - N/A   Unknown
3:25 AM 50.0 °F 46.4 °F 87% 30.33 in 6.2 mi WSW 4.6 mph - N/A   Unknown
3:55 AM 48.2 °F 46.4 °F 93% 30.33 in 6.2 mi SW 6.9 mph - N/A   Unknown
4:25 AM 48.2 °F 46.4 °F 93% 30.33 in 6.2 mi SW 5.8 mph - N/A   Unknown
4:55 AM 48.2 °F 46.4 °F 93% 30.33 in 6.2 mi SSW 5.8 mph - N/A   Unknown
5:00 AM 48 °F 46 °F 92% 30.35 in 7 mi South 4.5 mph - -  
5:25 AM 48.2 °F 46.4 °F 93% 30.33 in 6.2 mi South 5.8 mph - N/A   Unknown
5:55 AM 48.2 °F 46.4 °F 93% 30.33 in 6.2 mi South 4.6 mph - N/A   Unknown
6:25 AM 48.2 °F 46.4 °F 93% 30.33 in 6.2 mi South 3.5 mph - N/A   Unknown
6:55 AM 50.0 °F 48.2 °F 94% 30.33 in 6.2 mi South 5.8 mph - N/A   Unknown
7:25 AM 51.8 °F 50.0 °F 94% 30.33 in 6.2 mi Variable 5.8 mph - N/A   Unknown
7:55 AM 53.6 °F 50.0 °F 88% 30.33 in 6.2 mi South 5.8 mph - N/A   Unknown
8:00 AM 54 °F 50 °F 80% 30.36 in 7 mi South 6.7 mph - -   Scattered Clouds
8:25 AM 55.4 °F 50.0 °F 82% 30.33 in 6.2 mi South 5.8 mph - N/A   Unknown
8:55 AM 57.2 °F 51.8 °F 82% 30.36 in 6.2 mi South 4.6 mph - N/A   Unknown
9:25 AM 59.0 °F 51.8 °F 77% 30.33 in 6.2 mi South 4.6 mph - N/A   Unknown
9:55 AM 60.8 °F 50.0 °F 68% 30.33 in 6.2 mi SSE 6.9 mph - N/A   Unknown
10:25 AM 62.6 °F 50.0 °F 63% 30.33 in 6.2 mi South 9.2 mph - N/A   Unknown
10:55 AM 62.6 °F 50.0 °F 63% 30.33 in 6.2 mi South 10.4 mph - N/A   Unknown
11:00 AM 64 °F 49 °F 48% 30.34 in 11 mi South 8.9 mph - -   Scattered Clouds
11:25 AM 64.4 °F 48.2 °F 56% 30.33 in 6.2 mi South 9.2 mph - N/A   Unknown
11:55 AM 64.4 °F 46.4 °F 52% 30.30 in 6.2 mi South 9.2 mph - N/A   Scattered Clouds
12:25 PM 66.2 °F 41.0 °F 40% 30.30 in 6.2 mi SSW 9.2 mph - N/A   Unknown
12:55 PM 68.0 °F 41.0 °F 37% 30.30 in 6.2 mi South 11.5 mph - N/A   Unknown
1:25 PM 68.0 °F 39.2 °F 35% 30.27 in 6.2 mi South 10.4 mph - N/A   Unknown
1:55 PM 66.2 °F 37.4 °F 35% 30.27 in 6.2 mi SSW 10.4 mph - N/A   Unknown
2:00 PM 69 °F 38 °F 21% 30.28 in 18 mi SSW 8.9 mph - -  
2:25 PM 68.0 °F 37.4 °F 33% 30.24 in 6.2 mi SSE 8.1 mph - N/A   Unknown
2:55 PM 69.8 °F 37.4 °F 31% 30.24 in 6.2 mi SSW 5.8 mph - N/A   Unknown
3:25 PM 71.6 °F 37.4 °F 29% 30.21 in 6.2 mi South 9.2 mph - N/A   Unknown
3:55 PM 71.6 °F 35.6 °F 27% 30.21 in 6.2 mi South 10.4 mph - N/A   Unknown
4:25 PM 71.6 °F 35.6 °F 27% 30.18 in 6.2 mi SSE 9.2 mph - N/A   Unknown
4:55 PM 71.6 °F 35.6 °F 27% 30.18 in 6.2 mi South 8.1 mph - N/A   Unknown
5:00 PM 71 °F 35 °F 17% 30.19 in 14 mi SSW 8.9 mph - -  
5:25 PM 71.6 °F 33.8 °F 25% 30.15 in 6.2 mi South 9.2 mph - N/A   Unknown
5:55 PM 71.6 °F 32.0 °F 23% 30.15 in 6.2 mi South 6.9 mph - N/A   Unknown
6:25 PM 71.6 °F 33.8 °F 25% 30.12 in 6.2 mi SSE 11.5 mph - N/A   Unknown
6:55 PM 71.6 °F 32.0 °F 23% 30.12 in 6.2 mi South 11.5 mph - N/A   Unknown
7:25 PM 69.8 °F 33.8 °F 27% 30.09 in 6.2 mi SE 8.1 mph - N/A   Unknown
7:55 PM 69.8 °F 33.8 °F 27% 30.09 in 6.2 mi SE 9.2 mph - N/A   Unknown
8:00 PM 70 °F 32 °F 14% 30.09 in 22 mi SSE 6.7 mph - -   Mostly Cloudy
8:25 PM 69.8 °F 33.8 °F 27% 30.06 in 6.2 mi SSE 9.2 mph - N/A   Unknown
8:55 PM 68.0 °F 33.8 °F 28% 30.06 in 6.2 mi SSE 6.9 mph - N/A   Mostly Cloudy
9:25 PM 66.2 °F 33.8 °F 30% 30.04 in 6.2 mi ESE 4.6 mph - N/A   Mostly Cloudy
9:55 PM 62.6 °F 37.4 °F 39% 30.04 in 6.2 mi ESE 4.6 mph - N/A   Mostly Cloudy
10:25 PM 62.6 °F 39.2 °F 42% 30.04 in 6.2 mi ESE 6.9 mph - N/A   Partly Cloudy
10:55 PM 62.6 °F 37.4 °F 39% 30.01 in 6.2 mi ESE 6.9 mph - N/A   Unknown
11:00 PM 62 °F 37 °F 28% 30.02 in 28 mi ESE 8.9 mph - -   Scattered Clouds
11:25 PM 62.6 °F 37.4 °F 39% 30.01 in 6.2 mi ESE 6.9 mph - N/A   Unknown
11:55 PM 62.6 °F 37.4 °F 39% 29.98 in 6.2 mi ESE 8.1 mph - N/A   Unknown